Time,TemperatureF,DewpointF,PressureIn,WindDirection,WindDirectionDegrees,WindSpeedMPH,WindSpeedGustMPH,Humidity,HourlyPrecipIn,Conditions,Clouds,dailyrainin,SoftwareType,DateUTC
2013-07-08 00:01:00,73.0,71.0,30.03,North,0,0.0,0.0,93,0.00,,,0.43,,2013-07-08 05:01:00,
2013-07-08 00:12:00,72.0,70.0,30.03,North,0,0.0,0.0,93,0.00,,,0.43,,2013-07-08 05:12:00,
2013-07-08 00:22:00,72.0,70.0,30.03,North,0,0.0,0.0,93,0.00,,,0.43,,2013-07-08 05:22:00,
2013-07-08 00:33:00,72.0,70.0,30.03,North,0,0.0,0.0,94,0.00,,,0.43,,2013-07-08 05:33:00,
2013-07-08 00:43:00,72.0,70.0,30.03,North,0,0.0,0.0,94,0.00,,,0.43,,2013-07-08 05:43:00,
2013-07-08 00:53:00,72.0,70.0,30.02,North,0,0.0,0.0,94,0.00,,,0.43,,2013-07-08 05:53:00,
2013-07-08 01:01:00,72.0,70.0,30.02,North,0,0.0,0.0,94,0.00,,,0.43,,2013-07-08 06:01:00,
2013-07-08 01:12:00,72.0,70.0,30.02,North,0,0.0,0.0,95,0.00,,,0.43,,2013-07-08 06:12:00,
2013-07-08 01:22:00,72.0,70.0,30.02,North,0,0.0,0.0,95,0.00,,,0.43,,2013-07-08 06:22:00,
2013-07-08 01:33:00,72.0,70.0,30.02,North,0,0.0,0.0,95,0.00,,,0.43,,2013-07-08 06:33:00,
2013-07-08 01:43:00,71.0,69.0,30.01,North,0,0.0,0.0,95,0.00,,,0.43,,2013-07-08 06:43:00,
2013-07-08 01:53:00,71.0,69.0,30.01,North,0,0.0,0.0,95,0.00,,,0.43,,2013-07-08 06:53:00,
2013-07-08 02:02:00,71.0,69.0,30.01,North,0,0.0,0.0,95,0.00,,,0.43,,2013-07-08 07:02:00,
2013-07-08 02:12:00,71.0,69.0,30.01,North,0,0.0,0.0,95,0.00,,,0.43,,2013-07-08 07:12:00,
2013-07-08 02:22:00,71.0,69.0,30.02,North,0,0.0,0.0,95,0.00,,,0.43,,2013-07-08 07:22:00,
2013-07-08 02:34:00,71.0,70.0,30.02,North,0,0.0,0.0,96,0.00,,,0.43,,2013-07-08 07:34:00,
2013-07-08 02:44:00,71.0,70.0,30.01,North,0,0.0,0.0,96,0.00,,,0.43,,2013-07-08 07:44:00,
2013-07-08 02:53:00,71.0,70.0,30.02,North,0,0.0,0.0,96,0.00,,,0.43,,2013-07-08 07:53:00,
2013-07-08 03:02:00,71.0,70.0,30.02,North,0,0.0,0.0,96,0.00,,,0.43,,2013-07-08 08:02:00,
2013-07-08 03:12:00,71.0,70.0,30.02,North,0,0.0,0.0,96,0.00,,,0.43,,2013-07-08 08:12:00,
2013-07-08 03:22:00,71.0,70.0,30.02,North,0,0.0,0.0,96,0.00,,,0.43,,2013-07-08 08:22:00,
2013-07-08 03:33:00,71.0,70.0,30.02,North,0,0.0,0.0,96,0.00,,,0.43,,2013-07-08 08:33:00,
2013-07-08 03:42:00,71.0,70.0,30.02,North,0,0.0,0.0,96,0.00,,,0.43,,2013-07-08 08:42:00,
2013-07-08 03:53:00,71.0,70.0,30.02,North,0,0.0,0.0,96,0.00,,,0.43,,2013-07-08 08:53:00,
2013-07-08 04:01:00,71.0,70.0,30.03,North,0,0.0,0.0,96,0.00,,,0.43,,2013-07-08 09:01:00,
2013-07-08 04:11:00,71.0,70.0,30.03,North,0,0.0,0.0,96,0.00,,,0.43,,2013-07-08 09:11:00,
2013-07-08 04:22:00,71.0,70.0,30.03,North,0,0.0,0.0,96,0.00,,,0.43,,2013-07-08 09:22:00,
2013-07-08 04:34:00,71.0,70.0,30.03,North,0,0.0,0.0,96,0.00,,,0.43,,2013-07-08 09:34:00,
2013-07-08 04:43:00,71.0,70.0,30.03,North,0,0.0,0.0,96,0.00,,,0.43,,2013-07-08 09:43:00,
2013-07-08 04:52:00,71.0,70.0,30.03,North,0,0.0,0.0,97,0.00,,,0.43,,2013-07-08 09:52:00,
2013-07-08 05:02:00,71.0,70.0,30.03,North,0,0.0,0.0,97,0.00,,,0.43,,2013-07-08 10:02:00,
2013-07-08 05:11:00,71.0,70.0,30.03,North,0,0.0,0.0,97,0.00,,,0.43,,2013-07-08 10:11:00,
2013-07-08 05:22:00,71.0,70.0,30.03,North,0,0.0,0.0,97,0.00,,,0.43,,2013-07-08 10:22:00,
2013-07-08 05:34:00,71.0,70.0,30.03,North,0,0.0,0.0,97,0.00,,,0.43,,2013-07-08 10:34:00,
2013-07-08 05:43:00,70.0,69.0,30.03,North,0,0.0,0.0,97,0.00,,,0.43,,2013-07-08 10:43:00,
2013-07-08 05:53:00,70.0,69.0,30.03,North,0,0.0,0.0,97,0.00,,,0.43,,2013-07-08 10:53:00,
2013-07-08 06:02:00,70.0,69.0,30.03,North,0,0.0,0.0,97,0.00,,,0.43,,2013-07-08 11:02:00,
2013-07-08 06:11:00,70.0,69.0,30.04,North,0,0.0,0.0,97,0.00,,,0.43,,2013-07-08 11:11:00,
2013-07-08 06:23:00,70.0,69.0,30.04,North,0,0.0,0.0,97,0.00,,,0.43,,2013-07-08 11:23:00,
2013-07-08 06:33:00,70.0,69.0,30.04,North,0,0.0,0.0,97,0.00,,,0.43,,2013-07-08 11:33:00,
2013-07-08 06:43:00,70.0,69.0,30.04,North,0,0.0,0.0,97,0.00,,,0.43,,2013-07-08 11:43:00,
2013-07-08 06:53:00,70.0,69.0,30.04,North,0,0.0,0.0,97,0.00,,,0.43,,2013-07-08 11:53:00,
2013-07-08 07:01:00,71.0,70.0,30.04,North,0,0.0,0.0,97,0.00,,,0.43,,2013-07-08 12:01:00,
2013-07-08 07:11:00,71.0,71.0,30.04,SE,139,0.0,3.0,100,0.00,,,0.43,,2013-07-08 12:11:00,
2013-07-08 07:22:00,72.0,72.0,30.04,SE,139,0.0,2.0,100,0.00,,,0.43,,2013-07-08 12:22:00,
2013-07-08 07:34:00,72.0,72.0,30.04,SE,140,0.0,2.0,100,0.00,,,0.43,,2013-07-08 12:34:00,
2013-07-08 07:43:00,73.0,73.0,30.05,SE,140,0.0,5.0,100,0.00,,,0.43,,2013-07-08 12:43:00,
2013-07-08 07:53:00,73.0,72.0,30.05,SSW,212,1.0,10.0,97,0.00,,,0.43,,2013-07-08 12:53:00,
2013-07-08 08:02:00,73.0,72.0,30.05,SSW,198,1.0,6.0,97,0.00,,,0.43,,2013-07-08 13:02:00,
2013-07-08 08:11:00,73.0,72.0,30.05,SSW,209,0.0,6.0,97,0.00,,,0.43,,2013-07-08 13:11:00,
2013-07-08 08:22:00,74.0,73.0,30.05,SSW,203,0.0,5.0,97,0.00,,,0.43,,2013-07-08 13:22:00,
2013-07-08 08:33:00,74.0,73.0,30.06,SE,145,0.0,5.0,96,0.00,,,0.43,,2013-07-08 13:33:00,
2013-07-08 08:42:00,75.0,73.0,30.06,SE,144,1.0,5.0,95,0.00,,,0.43,,2013-07-08 13:42:00,
2013-07-08 08:53:00,75.0,73.0,30.06,SSE,156,0.0,3.0,94,0.00,,,0.43,,2013-07-08 13:53:00,
2013-07-08 09:02:00,75.0,73.0,30.06,SSE,156,0.0,3.0,94,0.00,,,0.43,,2013-07-08 14:02:00,
2013-07-08 09:12:00,76.0,73.0,30.06,SSE,165,0.0,5.0,91,0.00,,,0.43,,2013-07-08 14:12:00,
2013-07-08 09:22:00,76.0,73.0,30.06,SE,143,0.0,3.0,89,0.00,,,0.43,,2013-07-08 14:22:00,
2013-07-08 09:34:00,77.0,73.0,30.06,SE,144,0.0,2.0,88,0.00,,,0.43,,2013-07-08 14:34:00,
2013-07-08 09:43:00,78.0,74.0,30.07,WSW,245,0.0,3.0,87,0.00,,,0.43,,2013-07-08 14:43:00,
2013-07-08 09:53:00,79.0,74.0,30.07,SW,225,0.0,4.0,84,0.00,,,0.43,,2013-07-08 14:53:00,
2013-07-08 10:02:00,80.0,74.0,30.07,South,186,0.0,4.0,82,0.00,,,0.43,,2013-07-08 15:02:00,
2013-07-08 10:11:00,80.0,73.0,30.07,SSE,159,1.0,5.0,79,0.00,,,0.43,,2013-07-08 15:11:00,
2013-07-08 10:22:00,81.0,74.0,30.06,SSE,161,1.0,6.0,79,0.00,,,0.43,,2013-07-08 15:22:00,
2013-07-08 10:33:00,82.0,74.0,30.06,SSE,157,0.0,5.0,77,0.00,,,0.43,,2013-07-08 15:33:00,
2013-07-08 10:43:00,82.0,74.0,30.07,SE,124,1.0,6.0,77,0.00,,,0.43,,2013-07-08 15:43:00,
2013-07-08 10:53:00,82.0,74.0,30.07,SSE,167,1.0,5.0,76,0.00,,,0.43,,2013-07-08 15:53:00,
2013-07-08 11:01:00,83.0,74.0,30.07,SSE,168,0.0,3.0,74,0.00,,,0.43,,2013-07-08 16:01:00,
2013-07-08 11:11:00,84.0,74.0,30.07,SE,133,1.0,5.0,72,0.00,,,0.43,,2013-07-08 16:11:00,
2013-07-08 11:22:00,84.0,73.0,30.08,ESE,116,1.0,6.0,69,0.00,,,0.43,,2013-07-08 16:22:00,
2013-07-08 11:33:00,84.0,73.0,30.08,East,101,1.0,7.0,70,0.00,,,0.43,,2013-07-08 16:33:00,
2013-07-08 11:43:00,84.0,73.0,30.08,East,101,1.0,7.0,70,0.00,,,0.43,,2013-07-08 16:43:00,
2013-07-08 11:54:00,85.0,74.0,30.08,SE,145,1.0,5.0,69,0.00,,,0.43,,2013-07-08 16:54:00,
2013-07-08 12:07:00,84.0,74.0,30.08,SSE,155,1.0,7.0,71,0.00,,,0.43,,2013-07-08 17:07:00,
2013-07-08 12:14:00,84.0,74.0,30.07,ESE,105,2.0,7.0,72,0.00,,,0.43,,2013-07-08 17:14:00,
2013-07-08 12:28:00,84.0,72.0,30.07,ESE,103,0.0,5.0,67,0.00,,,0.43,,2013-07-08 17:28:00,
2013-07-08 12:37:00,84.0,74.0,30.07,East,99,1.0,5.0,72,0.00,,,0.43,,2013-07-08 17:37:00,
2013-07-08 12:45:00,84.0,75.0,30.07,East,90,2.0,7.0,74,0.00,,,0.43,,2013-07-08 17:45:00,
2013-07-08 12:54:00,85.0,73.0,30.07,ESE,102,1.0,6.0,68,0.00,,,0.43,,2013-07-08 17:54:00,
2013-07-08 13:07:00,85.0,73.0,30.07,ESE,103,1.0,8.0,68,0.00,,,0.43,,2013-07-08 18:07:00,
2013-07-08 13:21:00,84.0,73.0,30.07,East,99,3.0,8.0,69,0.00,,,0.43,,2013-07-08 18:21:00,
2013-07-08 13:42:00,86.0,73.0,30.06,ESE,103,1.0,6.0,66,0.00,,,0.43,,2013-07-08 18:42:00,
2013-07-08 13:56:00,86.0,69.0,30.05,SE,128,1.0,8.0,58,0.00,,,0.43,,2013-07-08 18:56:00,
2013-07-08 14:11:00,88.0,73.0,30.05,SE,128,0.0,3.0,61,0.00,,,0.43,,2013-07-08 19:11:00,
2013-07-08 14:19:00,87.0,70.0,30.05,SE,130,1.0,7.0,57,0.00,,,0.43,,2013-07-08 19:19:00,
2013-07-08 14:31:00,87.0,69.0,30.04,SSW,200,1.0,6.0,55,0.00,,,0.43,,2013-07-08 19:31:00,
2013-07-08 14:37:00,87.0,72.0,30.04,ESE,104,1.0,7.0,62,0.00,,,0.43,,2013-07-08 19:37:00,
2013-07-08 14:58:00,87.0,73.0,30.03,East,100,2.0,7.0,63,0.00,,,0.43,,2013-07-08 19:58:00,
2013-07-08 15:12:00,87.0,72.0,30.03,East,96,1.0,5.0,62,0.00,,,0.43,,2013-07-08 20:12:00,
2013-07-08 15:30:00,87.0,71.0,30.03,East,85,2.0,6.0,60,0.00,,,0.43,,2013-07-08 20:30:00,
2013-07-08 15:42:00,87.0,73.0,30.03,East,94,1.0,6.0,63,0.00,,,0.43,,2013-07-08 20:42:00,
2013-07-08 15:50:00,86.0,71.0,30.03,East,83,1.0,5.0,62,0.00,,,0.43,,2013-07-08 20:50:00,
2013-07-08 15:59:00,86.0,71.0,30.03,East,98,1.0,6.0,61,0.00,,,0.43,,2013-07-08 20:59:00,
2013-07-08 16:13:00,86.0,70.0,30.02,East,95,0.0,5.0,60,0.00,,,0.43,,2013-07-08 21:13:00,
2013-07-08 16:31:00,85.0,70.0,30.01,East,89,1.0,6.0,62,0.00,,,0.00,,2013-07-08 21:31:00,
2013-07-08 16:40:00,86.0,71.0,30.01,East,91,1.0,6.0,61,0.00,,,0.00,,2013-07-08 21:40:00,
2013-07-08 17:30:00,86.0,71.0,30.00,East,100,0.0,3.0,61,0.00,,,0.00,,2013-07-08 22:30:00,
2013-07-08 17:58:00,86.0,72.0,29.99,East,90,0.0,2.0,64,0.00,,,0.00,,2013-07-08 22:58:00,
2013-07-08 18:12:00,85.0,71.0,29.99,East,90,0.0,5.0,63,0.00,,,0.00,,2013-07-08 23:12:00,
2013-07-08 18:30:00,85.0,72.0,29.99,North,0,0.0,0.0,66,0.00,,,0.00,,2013-07-08 23:30:00,
2013-07-08 18:52:00,84.0,73.0,29.99,North,0,0.0,0.0,69,0.00,,,0.00,,2013-07-08 23:52:00,
2013-07-08 18:59:00,84.0,73.0,29.99,North,0,0.0,0.0,69,0.00,,,0.00,,2013-07-08 23:59:00,
2013-07-08 19:13:00,84.0,74.0,29.99,East,90,0.0,2.0,71,0.00,,,0.00,,2013-07-09 00:13:00,
2013-07-08 19:21:00,84.0,74.0,29.99,North,0,0.0,0.0,71,0.00,,,0.00,,2013-07-09 00:21:00,
2013-07-08 19:30:00,83.0,73.0,29.99,North,0,0.0,0.0,71,0.00,,,0.00,,2013-07-09 00:30:00,
2013-07-08 19:42:00,83.0,73.0,29.99,North,0,0.0,0.0,71,0.00,,,0.00,,2013-07-09 00:42:00,
2013-07-08 19:52:00,83.0,73.0,29.99,North,0,0.0,0.0,73,0.00,,,0.00,,2013-07-09 00:52:00,
2013-07-08 19:59:00,83.0,73.0,29.99,North,0,0.0,0.0,73,0.00,,,0.00,,2013-07-09 00:59:00,
2013-07-08 20:32:00,81.0,73.0,29.98,North,0,0.0,0.0,77,0.00,,,0.00,,2013-07-09 01:32:00,
2013-07-08 20:59:00,80.0,73.0,29.99,North,0,0.0,0.0,79,0.00,,,0.00,,2013-07-09 01:59:00,
2013-07-08 21:23:00,-999.0,-99.9,29.99,North,0,0.0,0.0,80,0.00,,,0.00,,2013-07-09 02:23:00,
2013-07-08 21:44:00,79.0,73.0,30.00,North,0,0.0,0.0,82,0.00,,,0.00,,2013-07-09 02:44:00,
2013-07-08 21:52:00,78.0,73.0,30.00,North,0,0.0,0.0,84,0.00,,,0.00,,2013-07-09 02:52:00,
2013-07-08 22:00:00,77.0,72.0,30.01,North,0,0.0,0.0,86,0.00,,,0.00,,2013-07-09 03:00:00,
2013-07-08 22:21:00,77.0,73.0,30.01,North,0,0.0,0.0,87,0.00,,,0.00,,2013-07-09 03:21:00,
2013-07-08 22:52:00,76.0,72.0,30.01,North,0,0.0,0.0,88,0.00,,,0.00,,2013-07-09 03:52:00,
2013-07-08 23:00:00,76.0,72.0,30.02,North,0,0.0,0.0,88,0.00,,,0.00,,2013-07-09 04:00:00,
2013-07-08 23:02:00,75.0,71.0,30.02,North,0,0.0,0.0,88,0.00,,,0.00,,2013-07-09 04:02:00,
2013-07-08 23:11:00,75.0,72.0,30.02,North,0,0.0,0.0,89,0.00,,,0.00,,2013-07-09 04:11:00,
2013-07-08 23:22:00,75.0,72.0,30.02,North,0,0.0,0.0,89,0.00,,,0.00,,2013-07-09 04:22:00,
2013-07-08 23:42:00,75.0,72.0,30.02,North,0,0.0,0.0,89,0.00,,,0.00,,2013-07-09 04:42:00,
2013-07-08 23:53:00,75.0,72.0,30.02,North,0,0.0,0.0,90,0.00,,,0.00,,2013-07-09 04:53:00,